Location: Hope
(40.9110°N, 74.9680°W)
Time: 15:15:36
(UTC-05:00)

N. Korean satellite - Pass Details

Date: 24 January 2019
Orbit: 456 x 510 km, 97.2° (Epoch: 21 February)

Event Time Altitude Azimuth Distance (km) Brightness Sun altitude
Rises 18:14:25 0° 199° (SSW) 2,577 10.7 -12.8°
Reaches altitude 10° 18:16:51 10° 216° (SW) 1,707 10.1 -13.3°
Maximum altitude 18:19:41 21° 266° (W) 1,190 9.6 -13.8°
Drops below altitude 10° 18:22:33 10° 316° (NW) 1,732 9.8 -14.3°
Sets 18:25:03 0° 333° (NNW) 2,627 10.5 -14.8°
